This demonstration page uses our WeatherBlox Daily Observations layout. Learn more.

Left ArrowRight Arrow

36.17497, -115.13722

Hourly Observations for May 29, 2017

Temp ( °F °C ) Dew Point ( °F °C ) Humidity (%) Winds ( mph kmh ) Pressure ( in mb ) Visibility ( mi km ) Precip ( " mm )
12:53 am 00:53 Clear 77 25 22 -5.6 13 13 NW 9 15 29.86 1011 10 16 0.00 0.00
1:53 am 01:53 Clear 76 24.4 22 -5.6 13 13 WNW 7 11 29.86 1011 10 16 0.00 0.00
2:53 am 02:53 Clear 76 24.4 21 -6.1 13 13 Calm 29.86 1011 10 16 0.00 0.00
3:53 am 03:53 Clear 72 22.2 22 -5.6 15 15 NW 3 6 29.87 1011 10 16 0.00 0.00
4:53 am 04:53 Clear 73 22.8 21 -6.1 14 14 Calm 29.87 1012 10 16 0.00 0.00
5:53 am 05:53 Sunny 71 21.7 22 -5.6 16 16 W 6 9 29.88 1012 10 16 0.00 0.00
6:53 am 06:53 Sunny 76 24.4 22 -5.6 13 13 VRB 3 6 29.90 1012 10 16 0.00 0.00
7:53 am 07:53 Sunny 80 26.7 24 -4.4 13 13 Calm 29.90 1013 10 16 0.00 0.00
8:53 am 08:53 Sunny 86 30 19 -7.2 8 8 N 9 15 29.89 1012 10 16 0.00 0.00
9:53 am 09:53 Sunny 88 31.1 14 -10 6 6 VRB 5 7 29.88 1012 10 16 0.00 0.00
10:53 am 10:53 Sunny 93 33.9 15 -9.4 6 6 N 6 9 29.87 1011 10 16 0.00 0.00
11:53 am 11:53 Sunny 94 34.4 15 -9.4 5 5 E 13 20 29.85 1011 10 16 0.00 0.00
12:53 pm 12:53 Sunny 95 35 17 -8.3 6 6 E 7 11 29.84 1011 10 16 0.00 0.00
1:53 pm 13:53 Sunny 97 36.1 15 -9.4 5 5 VRB 7 11 29.81 1010 10 16 0.00 0.00
2:53 pm 14:53 Sunny 97 36.1 15 -9.4 5 5 Calm 29.79 1009 10 16 0.00 0.00
3:53 pm 15:53 Sunny 97 36.1 14 -10 5 5 SE 12 19 29.77 1008 10 16 0.00 0.00
4:53 pm 16:53 Sunny 96 35.6 12 -11.1 4 4 WSW 5 7 29.75 1008 10 16 0.00 0.00
5:53 pm 17:53 Sunny 96 35.6 11 -11.7 4 4 S 5 7 29.74 1007 10 16 0.00 0.00
6:53 pm 18:53 Sunny 96 35.6 11 -11.7 4 4 Calm 29.74 1007 10 16 0.00 0.00
7:53 pm 19:53 Clear 94 34.4 13 -10.6 5 5 E 3 6 29.74 1007 10 16 0.00 0.00
8:53 pm 20:53 Clear 91 32.8 16 -8.9 6 6 Calm 29.74 1007 10 16 0.00 0.00
9:53 pm 21:53 Clear 87 30.6 28 -2.2 12 12 NW 7 11 29.76 1008 10 16 0.00 0.00
10:53 pm 22:53 Clear 83 28.3 26 -3.3 12 12 NNW 6 9 29.76 1008 10 16 0.00 0.00
11:53 pm 23:53 Clear 80 26.7 27 -2.8 14 14 N 3 6 29.77 1008 10 16 0.00 0.00

Powered by AerisWeather